This demonstration page uses our WeatherBlox Daily Observations layout. Learn more.

Left ArrowRight Arrow

Hourly Observations for February 21, 2022

Temp ( °F °C ) Dew Point ( °F °C ) Humidity (%) Winds ( mph kmh ) Pressure ( in mb ) Visibility ( mi km ) Precip ( " mm )
12:56 am 00:56 Clear 32 0 19 -7.2 59 59 SE 7 11 29.69 1005 10 16 0.00 0.00
1:56 am 01:56 Clear 30 -1.1 19 -7.2 64 64 SE 5 7 29.66 1004 10 16 0.00 0.00
2:56 am 02:56 Clear 26 -3.3 17 -8.3 69 69 ENE 6 9 29.63 1004 10 16 0.00 0.00
3:56 am 03:56 Clear 28 -2.2 18 -7.8 66 66 E 6 9 29.60 1003 10 16 0.00 0.00
4:56 am 04:56 Clear 26 -3.3 19 -7.2 75 75 NNE 12 19 29.62 1003 10 16 0.00 0.00
5:56 am 05:56 Clear 28 -2.2 24 -4.4 85 85 NNE 13 20 29.64 1004 10 16 0.00 0.00
6:56 am 06:56 Clear 26 -3.3 23 -5 88 88 NNE 16 26 29.66 1004 10 16 0.00 0.00
7:33 am 07:33 Partly Cloudy 25 -4 23 -5 93 93 NNE 16 26 29.75 1008 10 16 0.00 0.00
7:41 am 07:41 Mostly Cloudy 25 -4 23 -5 93 93 NNE 21 33 29.76 1008 10 16 0.00 0.00
7:56 am 07:56 Cloudy 26 -3.3 24 -4.4 92 92 NNE 21 33 29.68 1005 10 16 0.00 0.00
8:56 am 08:56 Cloudy 24 -4.4 20 -6.7 84 84 N 28 44 29.72 1006 10 16 0.00 0.00
9:56 am 09:56 Cloudy 21 -6.1 17 -8.3 85 85 N 26 43 29.76 1008 10 16 0.00 0.00
10:56 am 10:56 Cloudy 21 -6.1 15 -9.4 78 78 N 30 48 29.79 1009 10 16 0.00 0.00
11:56 am 11:56 Cloudy 22 -5.6 14 -10 71 71 N 26 43 29.83 1010 10 16 0.00 0.00
12:08 pm 12:08 Cloudy 21 -6 12 -11 68 68 NNW 25 41 29.91 1013 10 16 0.00 0.00
12:56 pm 12:56 Mostly Cloudy 22 -5.6 12 -11.1 66 66 N 30 48 29.80 1009 10 16 0.00 0.00
1:56 pm 13:56 Cloudy 21 -6.1 11 -11.7 65 65 N 25 41 29.84 1011 10 16 0.00 0.00
2:56 pm 14:56 Windy with Snow Likely 18 -7.8 8 -13.3 65 65 N 29 46 29.85 1011 9 14 0.00 0.00
3:56 pm 15:56 Cloudy 15 -9.4 6 -14.4 67 67 N 26 43 29.89 1012 9 14 0.00 0.00
4:56 pm 16:56 Cloudy 12 -11.1 4 -15.6 70 70 N 29 46 29.91 1013 10 16 0.00 0.00
5:56 pm 17:56 Windy with Snow Likely 11 -11.7 4 -15.6 73 73 N 24 39 29.96 1015 9 14 0.00 0.00
6:56 pm 18:56 Windy with Snow Likely 9 -12.8 3 -16.1 77 77 N 26 43 29.97 1015 9 14 0.00 0.00
7:56 pm 19:56 Windy with Snow Likely 7 -13.9 0 -17.8 73 73 N 28 44 30.02 1017 9 14 0.00 0.00
8:56 pm 20:56 Windy with Snow Likely 5 -15 -1 -18.3 76 76 N 25 41 30.06 1018 4 6 0.00 0.00
9:56 pm 21:56 Windy with Snow Likely 5 -15 -1 -18.3 76 76 N 28 44 30.04 1017 8 13 0.00 0.00
10:56 pm 22:56 Windy with Snow Likely 3 -16.1 -2 -18.9 79 79 N 25 41 30.06 1018 4 6 0.00 0.00
11:56 pm 23:56 Windy with Snow Likely 2 -16.7 -3 -19.4 80 80 NNW 26 43 30.09 1019 3 5 0.00 0.00

Powered by AerisWeather